Year,Month,Day,Hour,Minute,Value (Times are PST for temperature in C)
2008,10,19,00,00,5.80
2008,10,19,00,01,6.00
2008,10,19,00,02,6.10
2008,10,19,00,03,6.20
2008,10,19,00,04,6.40
2008,10,19,00,05,6.60
2008,10,19,00,06,6.80
2008,10,19,00,07,6.90
2008,10,19,00,08,7.00
2008,10,19,00,09,7.00
2008,10,19,00,10,7.20
2008,10,19,00,11,7.30
2008,10,19,00,12,7.30
2008,10,19,00,13,7.40
2008,10,19,00,14,7.50
2008,10,19,00,15,7.60
2008,10,19,00,16,7.70
2008,10,19,00,17,7.80
2008,10,19,00,18,7.80
2008,10,19,00,19,7.80
2008,10,19,00,20,7.80
2008,10,19,00,21,7.60
2008,10,19,00,22,7.50
2008,10,19,00,23,7.30
2008,10,19,00,24,7.20
2008,10,19,00,25,7.10
2008,10,19,00,26,6.90
2008,10,19,00,27,6.80
2008,10,19,00,28,6.70
2008,10,19,00,29,6.70
2008,10,19,00,30,6.60
2008,10,19,00,31,6.60
2008,10,19,00,32,6.50
2008,10,19,00,33,6.40
2008,10,19,00,34,6.40
2008,10,19,00,35,6.30
2008,10,19,00,36,6.30
2008,10,19,00,37,6.30
2008,10,19,00,38,6.20
2008,10,19,00,39,6.20
2008,10,19,00,40,6.20
2008,10,19,00,41,6.10
2008,10,19,00,42,6.10
2008,10,19,00,43,6.10
2008,10,19,00,44,6.10
2008,10,19,00,45,6.10
2008,10,19,00,46,6.10
2008,10,19,00,47,6.10
2008,10,19,00,48,6.10
2008,10,19,00,49,6.10
2008,10,19,00,50,6.00
2008,10,19,00,51,6.00
2008,10,19,00,52,6.00
2008,10,19,00,53,6.00
2008,10,19,00,54,5.90
2008,10,19,00,55,5.80
2008,10,19,00,56,5.70
2008,10,19,00,57,5.60
2008,10,19,00,58,5.50
2008,10,19,00,59,5.50
2008,10,19,01,00,5.30
2008,10,19,01,01,5.30
2008,10,19,01,02,5.20
2008,10,19,01,03,5.10
2008,10,19,01,04,5.10
2008,10,19,01,05,5.10
2008,10,19,01,06,5.10
2008,10,19,01,07,5.00
2008,10,19,01,08,4.90
2008,10,19,01,09,4.90
2008,10,19,01,10,4.90
2008,10,19,01,11,4.90
2008,10,19,01,12,4.90
2008,10,19,01,13,4.90
2008,10,19,01,14,4.90
2008,10,19,01,15,4.90
2008,10,19,01,16,4.90
2008,10,19,01,17,4.90
2008,10,19,01,18,4.90
2008,10,19,01,19,4.90
2008,10,19,01,20,4.90
2008,10,19,01,21,4.80
2008,10,19,01,22,4.80
2008,10,19,01,23,4.70
2008,10,19,01,24,4.60
2008,10,19,01,25,4.60
2008,10,19,01,26,4.50
2008,10,19,01,27,4.50
2008,10,19,01,28,4.40
2008,10,19,01,29,4.40
2008,10,19,01,30,4.30
2008,10,19,01,31,4.30
2008,10,19,01,32,4.20
2008,10,19,01,33,4.20
2008,10,19,01,34,4.20
2008,10,19,01,35,4.20
2008,10,19,01,36,4.20
2008,10,19,01,37,4.20
2008,10,19,01,38,4.20
2008,10,19,01,39,4.10
2008,10,19,01,40,4.10
2008,10,19,01,41,4.10
2008,10,19,01,42,4.10
2008,10,19,01,43,4.10
2008,10,19,01,44,4.00
2008,10,19,01,45,4.00
2008,10,19,01,46,4.00
2008,10,19,01,47,3.90
2008,10,19,01,48,3.90
2008,10,19,01,49,3.90
2008,10,19,01,50,3.80
2008,10,19,01,51,3.80
2008,10,19,01,52,3.80
2008,10,19,01,53,3.80
2008,10,19,01,54,3.80
2008,10,19,01,55,3.80
2008,10,19,01,56,3.70
2008,10,19,01,57,3.70
2008,10,19,01,58,3.70
2008,10,19,01,59,3.70
2008,10,19,02,00,3.60
2008,10,19,02,01,3.60
2008,10,19,02,02,3.60
2008,10,19,02,03,3.60
2008,10,19,02,04,3.60
2008,10,19,02,05,3.60
2008,10,19,02,06,3.70
2008,10,19,02,07,3.70
2008,10,19,02,08,3.80
2008,10,19,02,09,3.80
2008,10,19,02,10,3.70
2008,10,19,02,11,3.70
2008,10,19,02,12,3.60
2008,10,19,02,13,3.60
2008,10,19,02,14,3.50
2008,10,19,02,15,3.50
2008,10,19,02,16,3.40
2008,10,19,02,17,3.30
2008,10,19,02,18,3.30
2008,10,19,02,19,3.30
2008,10,19,02,20,3.30
2008,10,19,02,21,3.30
2008,10,19,02,22,3.30
2008,10,19,02,23,3.30
2008,10,19,02,24,3.30
2008,10,19,02,25,3.30
2008,10,19,02,26,3.30
2008,10,19,02,27,3.30
2008,10,19,02,28,3.30
2008,10,19,02,29,3.30
2008,10,19,02,30,3.30
2008,10,19,02,31,3.30
2008,10,19,02,32,3.30
2008,10,19,02,33,3.20
2008,10,19,02,34,3.20
2008,10,19,02,35,3.20
2008,10,19,02,36,3.20
2008,10,19,02,37,3.20
2008,10,19,02,38,3.20
2008,10,19,02,39,3.20
2008,10,19,02,40,3.20
2008,10,19,02,41,3.20
2008,10,19,02,42,3.20
2008,10,19,02,43,3.20
2008,10,19,02,44,3.20
2008,10,19,02,45,3.20
2008,10,19,02,46,3.20
2008,10,19,02,47,3.10
2008,10,19,02,48,3.10
2008,10,19,02,49,3.10
2008,10,19,02,50,3.10
2008,10,19,02,51,3.10
2008,10,19,02,52,2.90
2008,10,19,02,53,2.90
2008,10,19,02,54,2.90
2008,10,19,02,55,2.90
2008,10,19,02,56,2.90
2008,10,19,02,57,2.90
2008,10,19,02,58,2.90
2008,10,19,02,59,2.90
2008,10,19,03,00,2.90
2008,10,19,03,01,2.90
2008,10,19,03,02,2.90
2008,10,19,03,03,2.90
2008,10,19,03,04,2.90
2008,10,19,03,05,2.90
2008,10,19,03,06,2.90
2008,10,19,03,07,2.90
2008,10,19,03,08,2.90
2008,10,19,03,09,2.90
2008,10,19,03,10,2.80
2008,10,19,03,11,2.80
2008,10,19,03,12,2.80
2008,10,19,03,13,2.80
2008,10,19,03,14,2.80
2008,10,19,03,15,2.80
2008,10,19,03,16,2.80
2008,10,19,03,17,2.80
2008,10,19,03,18,2.70
2008,10,19,03,19,2.70
2008,10,19,03,20,2.70
2008,10,19,03,21,2.70
2008,10,19,03,22,2.70
2008,10,19,03,23,2.70
2008,10,19,03,24,2.70
2008,10,19,03,25,2.60
2008,10,19,03,26,2.60
2008,10,19,03,27,2.60
2008,10,19,03,28,2.60
2008,10,19,03,29,2.60
2008,10,19,03,30,2.70
2008,10,19,03,31,2.70
2008,10,19,03,32,2.70
2008,10,19,03,33,2.70
2008,10,19,03,34,2.70
2008,10,19,03,35,2.70
2008,10,19,03,36,2.70
2008,10,19,03,37,2.70
2008,10,19,03,38,2.70
2008,10,19,03,39,2.70
2008,10,19,03,40,2.70
2008,10,19,03,41,2.70
2008,10,19,03,42,2.70
2008,10,19,03,43,2.70
2008,10,19,03,44,2.70
2008,10,19,03,45,2.70
2008,10,19,03,46,2.60
2008,10,19,03,47,2.60
2008,10,19,03,48,2.60
2008,10,19,03,49,2.60
2008,10,19,03,50,2.60
2008,10,19,03,51,2.60
2008,10,19,03,52,2.60
2008,10,19,03,53,2.60
2008,10,19,03,54,2.60
2008,10,19,03,55,2.60
2008,10,19,03,56,2.60
2008,10,19,03,57,2.60
2008,10,19,03,58,2.60
2008,10,19,03,59,2.50
2008,10,19,04,00,2.50
2008,10,19,04,01,2.50
2008,10,19,04,02,2.50
2008,10,19,04,03,2.50
2008,10,19,04,04,2.50
2008,10,19,04,05,2.50
2008,10,19,04,06,2.50
2008,10,19,04,07,2.60
2008,10,19,04,08,2.50
2008,10,19,04,09,2.50
2008,10,19,04,10,2.50
2008,10,19,04,11,2.50
2008,10,19,04,12,2.50
2008,10,19,04,13,2.50
2008,10,19,04,14,2.50
2008,10,19,04,15,2.40
2008,10,19,04,16,2.40
2008,10,19,04,17,2.40
2008,10,19,04,18,2.30
2008,10,19,04,19,2.30
2008,10,19,04,20,2.20
2008,10,19,04,21,2.20
2008,10,19,04,22,2.20
2008,10,19,04,23,2.20
2008,10,19,04,24,2.20
2008,10,19,04,25,2.20
2008,10,19,04,26,2.10
2008,10,19,04,27,2.10
2008,10,19,04,28,2.10
2008,10,19,04,29,2.10
2008,10,19,04,30,2.10
2008,10,19,04,31,2.10
2008,10,19,04,32,2.10
2008,10,19,04,33,2.10
2008,10,19,04,34,2.10
2008,10,19,04,35,2.00
2008,10,19,04,36,2.00
2008,10,19,04,37,2.00
2008,10,19,04,38,2.00
2008,10,19,04,39,2.00
2008,10,19,04,40,2.00
2008,10,19,04,41,2.10
2008,10,19,04,42,2.10
2008,10,19,04,43,2.10
2008,10,19,04,44,2.10
2008,10,19,04,45,2.10
2008,10,19,04,46,2.10
2008,10,19,04,47,2.10
2008,10,19,04,48,2.10
2008,10,19,04,49,2.10
2008,10,19,04,50,2.10
2008,10,19,04,51,2.10
2008,10,19,04,52,2.10
2008,10,19,04,53,2.10
2008,10,19,04,54,2.10
2008,10,19,04,55,2.10
2008,10,19,04,56,2.10
2008,10,19,04,57,2.00
2008,10,19,04,58,2.00
2008,10,19,04,59,2.00
2008,10,19,05,00,2.00
2008,10,19,05,01,2.00
2008,10,19,05,02,1.90
2008,10,19,05,03,1.90
2008,10,19,05,04,1.90
2008,10,19,05,05,1.90
2008,10,19,05,06,1.90
2008,10,19,05,07,1.90
2008,10,19,05,08,1.80
2008,10,19,05,09,1.80
2008,10,19,05,10,1.80
2008,10,19,05,11,1.80
2008,10,19,05,12,1.80
2008,10,19,05,13,1.70
2008,10,19,05,14,1.70
2008,10,19,05,15,1.70
2008,10,19,05,16,1.70
2008,10,19,05,17,1.60
2008,10,19,05,18,1.60
2008,10,19,05,19,1.60
2008,10,19,05,20,1.60
2008,10,19,05,21,1.60
2008,10,19,05,22,1.60
2008,10,19,05,23,1.60
2008,10,19,05,24,1.70
2008,10,19,05,25,1.70
2008,10,19,05,26,1.70
2008,10,19,05,27,1.80
2008,10,19,05,28,1.80
2008,10,19,05,29,1.80
2008,10,19,05,30,1.80
2008,10,19,05,31,1.80
2008,10,19,05,32,1.80
2008,10,19,05,33,1.80
2008,10,19,05,34,1.80
2008,10,19,05,35,1.80
2008,10,19,05,36,1.80
2008,10,19,05,37,1.80
2008,10,19,05,38,1.80
2008,10,19,05,39,1.80
2008,10,19,05,40,1.80
2008,10,19,05,41,1.80
2008,10,19,05,42,1.80
2008,10,19,05,43,1.80
2008,10,19,05,44,1.80
2008,10,19,05,45,1.70
2008,10,19,05,46,1.70
2008,10,19,05,47,1.70
2008,10,19,05,48,1.70
2008,10,19,05,49,1.60
2008,10,19,05,50,1.60
2008,10,19,05,51,1.60
2008,10,19,05,52,1.60
2008,10,19,05,53,1.60
2008,10,19,05,54,1.60
2008,10,19,05,55,1.60
2008,10,19,05,56,1.60
2008,10,19,05,57,1.60
2008,10,19,05,58,1.50
2008,10,19,05,59,1.50
2008,10,19,06,00,1.50
2008,10,19,06,01,1.60
2008,10,19,06,02,1.60
2008,10,19,06,03,1.60
2008,10,19,06,04,1.60
2008,10,19,06,05,1.50
2008,10,19,06,06,1.60
2008,10,19,06,07,1.50
2008,10,19,06,08,1.50
2008,10,19,06,09,1.50
2008,10,19,06,10,1.60
2008,10,19,06,11,1.50
2008,10,19,06,12,1.50
2008,10,19,06,13,1.50
2008,10,19,06,14,1.50
2008,10,19,06,15,1.50
2008,10,19,06,16,1.40
2008,10,19,06,17,1.40
2008,10,19,06,18,1.40
2008,10,19,06,19,1.40
2008,10,19,06,20,1.40
2008,10,19,06,21,1.40
2008,10,19,06,22,1.40
2008,10,19,06,23,1.30
2008,10,19,06,24,1.30
2008,10,19,06,25,1.40
2008,10,19,06,26,1.40
2008,10,19,06,27,1.40
2008,10,19,06,28,1.30
2008,10,19,06,29,1.30
2008,10,19,06,30,1.30
2008,10,19,06,31,1.30
2008,10,19,06,32,1.30
2008,10,19,06,33,1.30
2008,10,19,06,34,1.30
2008,10,19,06,35,1.30
2008,10,19,06,36,1.40
2008,10,19,06,37,1.40
2008,10,19,06,38,1.40
2008,10,19,06,39,1.40
2008,10,19,06,40,1.40
2008,10,19,06,41,1.50
2008,10,19,06,42,1.50
2008,10,19,06,43,1.50
2008,10,19,06,44,1.50
2008,10,19,06,45,1.50
2008,10,19,06,46,1.50
2008,10,19,06,47,1.50
2008,10,19,06,48,1.50
2008,10,19,06,49,1.40
2008,10,19,06,50,1.40
2008,10,19,06,51,1.40
2008,10,19,06,52,1.40
2008,10,19,06,53,1.50
2008,10,19,06,54,1.50
2008,10,19,06,55,1.50
2008,10,19,06,56,1.50
2008,10,19,06,57,1.50
2008,10,19,06,58,1.50
2008,10,19,06,59,1.40
2008,10,19,07,00,1.50
2008,10,19,07,01,1.40
2008,10,19,07,02,1.40
2008,10,19,07,03,1.40
2008,10,19,07,04,1.40
2008,10,19,07,05,1.40
2008,10,19,07,06,1.40
2008,10,19,07,07,1.40
2008,10,19,07,08,1.40
2008,10,19,07,09,1.40
2008,10,19,07,10,1.40
2008,10,19,07,11,1.40
2008,10,19,07,12,1.40
2008,10,19,07,13,1.40
2008,10,19,07,14,1.40
2008,10,19,07,15,1.40
2008,10,19,07,16,1.40
2008,10,19,07,17,1.40
2008,10,19,07,18,1.40
2008,10,19,07,19,1.40
2008,10,19,07,20,1.40
2008,10,19,07,21,1.40
2008,10,19,07,22,1.40
2008,10,19,07,23,1.50
2008,10,19,07,24,1.50
2008,10,19,07,25,1.40
2008,10,19,07,26,1.40
2008,10,19,07,27,1.40
2008,10,19,07,28,1.50
2008,10,19,07,29,1.50
2008,10,19,07,30,1.60
2008,10,19,07,31,1.60
2008,10,19,07,32,1.70
2008,10,19,07,33,1.70
2008,10,19,07,34,1.70
2008,10,19,07,35,1.80
2008,10,19,07,36,1.80
2008,10,19,07,37,1.80
2008,10,19,07,38,1.80
2008,10,19,07,39,1.90
2008,10,19,07,40,2.00
2008,10,19,07,41,2.10
2008,10,19,07,42,2.20
2008,10,19,07,43,2.20
2008,10,19,07,44,2.30
2008,10,19,07,45,2.30
2008,10,19,07,46,2.40
2008,10,19,07,47,2.40
2008,10,19,07,48,2.50
2008,10,19,07,49,2.60
2008,10,19,07,50,2.70
2008,10,19,07,51,2.80
2008,10,19,07,52,2.90
2008,10,19,07,53,3.00
2008,10,19,07,54,3.10
2008,10,19,07,55,3.20
2008,10,19,07,56,3.30
2008,10,19,07,57,3.30
2008,10,19,07,58,3.50
2008,10,19,07,59,3.60
2008,10,19,08,00,3.70
2008,10,19,08,01,3.80
2008,10,19,08,02,4.00
2008,10,19,08,03,4.00
2008,10,19,08,04,4.20
2008,10,19,08,05,4.40
2008,10,19,08,06,4.50
2008,10,19,08,07,4.60
2008,10,19,08,08,4.70
2008,10,19,08,09,4.80
2008,10,19,08,10,4.90
2008,10,19,08,11,4.90
2008,10,19,08,12,5.10
2008,10,19,08,13,5.10
2008,10,19,08,14,5.10
2008,10,19,08,15,5.20
2008,10,19,08,16,5.20
2008,10,19,08,17,5.30
2008,10,19,08,18,5.30
2008,10,19,08,19,5.30
2008,10,19,08,20,5.30
2008,10,19,08,21,5.40
2008,10,19,08,22,5.40
2008,10,19,08,23,5.50
2008,10,19,08,24,5.50
2008,10,19,08,25,5.50
2008,10,19,08,26,5.50
2008,10,19,08,27,5.60
2008,10,19,08,28,5.60
2008,10,19,08,29,5.60
2008,10,19,08,30,5.60
2008,10,19,08,31,5.70
2008,10,19,08,32,5.70
2008,10,19,08,33,5.80
2008,10,19,08,34,5.80
2008,10,19,08,35,5.90
2008,10,19,08,36,5.90
2008,10,19,08,37,6.00
2008,10,19,08,38,6.00
2008,10,19,08,39,6.10
2008,10,19,08,40,6.20
2008,10,19,08,41,6.20
2008,10,19,08,42,6.20
2008,10,19,08,43,6.30
2008,10,19,08,44,6.30
2008,10,19,08,45,6.40
2008,10,19,08,46,6.50
2008,10,19,08,47,6.60
2008,10,19,08,48,6.70
2008,10,19,08,49,6.80
2008,10,19,08,50,6.80
2008,10,19,08,51,6.80
2008,10,19,08,52,6.80
2008,10,19,08,53,6.80
2008,10,19,08,54,6.80
2008,10,19,08,55,6.80
2008,10,19,08,56,6.80
2008,10,19,08,57,6.80
2008,10,19,08,58,6.80
2008,10,19,08,59,6.90
2008,10,19,09,00,6.90
2008,10,19,09,01,7.00
2008,10,19,09,02,7.00
2008,10,19,09,03,7.00
2008,10,19,09,04,7.10
2008,10,19,09,05,7.10
2008,10,19,09,06,7.10
2008,10,19,09,07,7.10
2008,10,19,09,08,7.20
2008,10,19,09,09,7.20
2008,10,19,09,10,7.20
2008,10,19,09,11,7.20
2008,10,19,09,12,7.30
2008,10,19,09,13,7.30
2008,10,19,09,14,7.30
2008,10,19,09,15,7.30
2008,10,19,09,16,7.30
2008,10,19,09,17,7.30
2008,10,19,09,18,7.30
2008,10,19,09,19,7.30
2008,10,19,09,20,7.30
2008,10,19,09,21,7.40
2008,10,19,09,22,7.40
2008,10,19,09,23,7.40
2008,10,19,09,24,7.50
2008,10,19,09,25,7.50
2008,10,19,09,26,7.60
2008,10,19,09,27,7.50
2008,10,19,09,28,7.50
2008,10,19,09,29,7.50
2008,10,19,09,30,7.40
2008,10,19,09,31,7.40
2008,10,19,09,32,7.40
2008,10,19,09,33,7.40
2008,10,19,09,34,7.40
2008,10,19,09,35,7.40
2008,10,19,09,36,7.40
2008,10,19,09,37,7.40
2008,10,19,09,38,7.40
2008,10,19,09,39,7.40
2008,10,19,09,40,7.40
2008,10,19,09,41,7.40
2008,10,19,09,42,7.40
2008,10,19,09,43,7.40
2008,10,19,09,44,7.40
2008,10,19,09,45,7.40
2008,10,19,09,46,7.40
2008,10,19,09,47,7.50
2008,10,19,09,48,7.50
2008,10,19,09,49,7.50
2008,10,19,09,50,7.60
2008,10,19,09,51,7.60
2008,10,19,09,52,7.70
2008,10,19,09,53,7.70
2008,10,19,09,54,7.70
2008,10,19,09,55,7.70
2008,10,19,09,56,7.70
2008,10,19,09,57,7.80
2008,10,19,09,58,7.80
2008,10,19,09,59,7.80
2008,10,19,10,00,7.80
2008,10,19,10,01,7.80
2008,10,19,10,02,7.80
2008,10,19,10,03,7.80
2008,10,19,10,04,7.90
2008,10,19,10,05,7.90
2008,10,19,10,06,7.90
2008,10,19,10,07,7.90
2008,10,19,10,08,8.00
2008,10,19,10,09,8.00
2008,10,19,10,10,8.00
2008,10,19,10,11,8.00
2008,10,19,10,12,8.10
2008,10,19,10,13,8.10
2008,10,19,10,14,8.10
2008,10,19,10,15,8.20
2008,10,19,10,16,8.30
2008,10,19,10,17,8.40
2008,10,19,10,18,8.40
2008,10,19,10,19,8.50
2008,10,19,10,20,8.50
2008,10,19,10,21,8.50
2008,10,19,10,22,8.60
2008,10,19,10,23,8.60
2008,10,19,10,24,8.60
2008,10,19,10,25,8.60
2008,10,19,10,26,8.70
2008,10,19,10,27,8.70
2008,10,19,10,28,8.70
2008,10,19,10,29,8.70
2008,10,19,10,30,8.70
2008,10,19,10,31,8.70
2008,10,19,10,32,8.70
2008,10,19,10,33,8.70
2008,10,19,10,34,8.80
2008,10,19,10,35,8.80
2008,10,19,10,36,8.90
2008,10,19,10,37,8.90
2008,10,19,10,38,9.00
2008,10,19,10,39,9.00
2008,10,19,10,40,9.00
2008,10,19,10,41,9.00
2008,10,19,10,42,9.10
2008,10,19,10,43,9.10
2008,10,19,10,44,9.10
2008,10,19,10,45,9.10
2008,10,19,10,46,9.10
2008,10,19,10,47,9.00
2008,10,19,10,48,9.00
2008,10,19,10,49,9.00
2008,10,19,10,50,8.90
2008,10,19,10,51,9.00
2008,10,19,10,52,9.00
2008,10,19,10,53,9.10
2008,10,19,10,54,9.10
2008,10,19,10,55,9.10
2008,10,19,10,56,9.00
2008,10,19,10,57,9.00
2008,10,19,10,58,9.10
2008,10,19,10,59,9.10
2008,10,19,11,00,9.20
2008,10,19,11,01,9.20
2008,10,19,11,02,9.20
2008,10,19,11,03,9.20
2008,10,19,11,04,9.20
2008,10,19,11,05,9.20
2008,10,19,11,06,9.20
2008,10,19,11,07,9.20
2008,10,19,11,08,9.20
2008,10,19,11,09,9.20
2008,10,19,11,10,9.20
2008,10,19,11,11,9.20
2008,10,19,11,12,9.20
2008,10,19,11,13,9.20
2008,10,19,11,14,9.30
2008,10,19,11,15,9.30
2008,10,19,11,16,9.30
2008,10,19,11,17,9.20
2008,10,19,11,18,9.20
2008,10,19,11,19,9.20
2008,10,19,11,20,9.20
2008,10,19,11,21,9.20
2008,10,19,11,22,9.20
2008,10,19,11,23,9.20
2008,10,19,11,24,9.20
2008,10,19,11,25,9.10
2008,10,19,11,26,9.10
2008,10,19,11,27,9.10
2008,10,19,11,28,9.20
2008,10,19,11,29,9.20
2008,10,19,11,30,9.20
2008,10,19,11,31,9.20
2008,10,19,11,32,9.20
2008,10,19,11,33,9.20
2008,10,19,11,34,9.20
2008,10,19,11,35,9.30
2008,10,19,11,36,9.30
2008,10,19,11,37,9.40
2008,10,19,11,38,9.40
2008,10,19,11,39,9.40
2008,10,19,11,40,9.40
2008,10,19,11,41,9.40
2008,10,19,11,42,9.40
2008,10,19,11,43,9.30
2008,10,19,11,44,9.30
2008,10,19,11,45,9.30
2008,10,19,11,46,9.30
2008,10,19,11,47,9.30
2008,10,19,11,48,9.30
2008,10,19,11,49,9.30
2008,10,19,11,50,9.30
2008,10,19,11,51,9.40
2008,10,19,11,52,9.40
2008,10,19,11,53,9.40
2008,10,19,11,54,9.40
2008,10,19,11,55,9.40
2008,10,19,11,56,9.40
2008,10,19,11,57,9.40
2008,10,19,11,58,9.40
2008,10,19,11,59,9.40
2008,10,19,12,00,9.40
2008,10,19,12,01,9.40
2008,10,19,12,02,9.40
2008,10,19,12,03,9.30
2008,10,19,12,04,9.30
2008,10,19,12,05,9.30
2008,10,19,12,06,9.40
2008,10,19,12,07,9.40
2008,10,19,12,08,9.40
2008,10,19,12,09,9.40
2008,10,19,12,10,9.40
2008,10,19,12,11,9.30
2008,10,19,12,12,9.30
2008,10,19,12,13,9.30
2008,10,19,12,14,9.40
2008,10,19,12,15,9.40
2008,10,19,12,16,9.40
2008,10,19,12,17,9.40
2008,10,19,12,18,9.40
2008,10,19,12,19,9.40
2008,10,19,12,20,9.40
2008,10,19,12,21,9.50
2008,10,19,12,22,9.50
2008,10,19,12,23,9.50
2008,10,19,12,24,9.50
2008,10,19,12,25,9.50
2008,10,19,12,26,9.50
2008,10,19,12,27,9.50
2008,10,19,12,28,9.60
2008,10,19,12,29,9.70
2008,10,19,12,30,9.70
2008,10,19,12,31,9.70
2008,10,19,12,32,9.70
2008,10,19,12,33,9.70
2008,10,19,12,34,9.70
2008,10,19,12,35,9.70
2008,10,19,12,36,9.70
2008,10,19,12,37,9.70
2008,10,19,12,38,9.80
2008,10,19,12,39,9.80
2008,10,19,12,40,9.90
2008,10,19,12,41,9.90
2008,10,19,12,42,9.90
2008,10,19,12,43,10.10
2008,10,19,12,44,10.10
2008,10,19,12,45,10.10
2008,10,19,12,46,10.10
2008,10,19,12,47,10.00
2008,10,19,12,48,9.90
2008,10,19,12,49,9.90
2008,10,19,12,50,9.90
2008,10,19,12,51,9.90
2008,10,19,12,52,9.90
2008,10,19,12,53,9.90
2008,10,19,12,54,9.90
2008,10,19,12,55,10.10
2008,10,19,12,56,10.10
2008,10,19,12,57,10.00
2008,10,19,12,58,9.90
2008,10,19,12,59,9.90
2008,10,19,13,00,9.90
2008,10,19,13,01,9.90
2008,10,19,13,02,10.00
2008,10,19,13,03,10.10
2008,10,19,13,04,10.10
2008,10,19,13,05,10.10
2008,10,19,13,06,10.10
2008,10,19,13,07,10.10
2008,10,19,13,08,10.10
2008,10,19,13,09,10.10
2008,10,19,13,10,10.10
2008,10,19,13,11,10.20
2008,10,19,13,12,10.20
2008,10,19,13,13,10.20
2008,10,19,13,14,10.20
2008,10,19,13,15,10.30
2008,10,19,13,16,10.30
2008,10,19,13,17,10.30
2008,10,19,13,18,10.30
2008,10,19,13,19,10.40
2008,10,19,13,20,10.40
2008,10,19,13,21,10.40
2008,10,19,13,22,10.40
2008,10,19,13,23,10.40
2008,10,19,13,24,10.40
2008,10,19,13,25,10.40
2008,10,19,13,26,10.30
2008,10,19,13,27,10.30
2008,10,19,13,28,10.20
2008,10,19,13,29,10.20
2008,10,19,13,30,10.20
2008,10,19,13,31,10.20
2008,10,19,13,32,10.20
2008,10,19,13,33,10.30
2008,10,19,13,34,10.30
2008,10,19,13,35,10.40
2008,10,19,13,36,10.40
2008,10,19,13,37,10.40
2008,10,19,13,38,10.40
2008,10,19,13,39,10.40
2008,10,19,13,40,10.40
2008,10,19,13,41,10.30
2008,10,19,13,42,10.30
2008,10,19,13,43,10.30
2008,10,19,13,44,10.40
2008,10,19,13,45,10.40
2008,10,19,13,46,10.40
2008,10,19,13,47,10.40
2008,10,19,13,48,10.30
2008,10,19,13,49,10.30
2008,10,19,13,50,10.30
2008,10,19,13,51,10.20
2008,10,19,13,52,10.30
2008,10,19,13,53,10.30
2008,10,19,13,54,10.20
2008,10,19,13,55,10.20
2008,10,19,13,56,10.20
2008,10,19,13,57,10.20
2008,10,19,13,58,10.20
2008,10,19,13,59,10.20
2008,10,19,14,00,10.30
2008,10,19,14,01,10.20
2008,10,19,14,02,10.20
2008,10,19,14,03,10.20
2008,10,19,14,04,10.20
2008,10,19,14,05,10.20
2008,10,19,14,06,10.20
2008,10,19,14,07,10.10
2008,10,19,14,08,10.10
2008,10,19,14,09,10.20
2008,10,19,14,10,10.20
2008,10,19,14,11,10.20
2008,10,19,14,12,10.30
2008,10,19,14,13,10.40
2008,10,19,14,14,10.40
2008,10,19,14,15,10.30
2008,10,19,14,16,10.30
2008,10,19,14,17,10.30
2008,10,19,14,18,10.30
2008,10,19,14,19,10.30
2008,10,19,14,20,10.30
2008,10,19,14,21,10.30
2008,10,19,14,22,10.30
2008,10,19,14,23,10.40
2008,10,19,14,24,10.40
2008,10,19,14,25,10.50
2008,10,19,14,26,10.50
2008,10,19,14,27,10.40
2008,10,19,14,28,10.40
2008,10,19,14,29,10.40
2008,10,19,14,30,10.40
2008,10,19,14,31,10.30
2008,10,19,14,32,10.40
2008,10,19,14,33,10.40
2008,10,19,14,34,10.40
2008,10,19,14,35,10.40
2008,10,19,14,36,10.40
2008,10,19,14,37,10.40
2008,10,19,14,38,10.40
2008,10,19,14,39,10.40
2008,10,19,14,40,10.40
2008,10,19,14,41,10.40
2008,10,19,14,42,10.40
2008,10,19,14,43,10.40
2008,10,19,14,44,10.40
2008,10,19,14,45,10.50
2008,10,19,14,46,10.60
2008,10,19,14,47,10.60
2008,10,19,14,48,10.70
2008,10,19,14,49,10.70
2008,10,19,14,50,10.80
2008,10,19,14,51,10.80
2008,10,19,14,52,10.80
2008,10,19,14,53,10.80
2008,10,19,14,54,10.70
2008,10,19,14,55,10.70
2008,10,19,14,56,10.70
2008,10,19,14,57,10.70
2008,10,19,14,58,10.70
2008,10,19,14,59,10.60
2008,10,19,15,00,10.60
2008,10,19,15,01,10.50
2008,10,19,15,02,10.40
2008,10,19,15,03,10.40
2008,10,19,15,04,10.30
2008,10,19,15,05,10.30
2008,10,19,15,06,10.40
2008,10,19,15,07,10.40
2008,10,19,15,08,10.40
2008,10,19,15,09,10.40
2008,10,19,15,10,10.40
2008,10,19,15,11,10.40
2008,10,19,15,12,10.40
2008,10,19,15,13,10.40
2008,10,19,15,14,10.40
2008,10,19,15,15,10.40
2008,10,19,15,16,10.40
2008,10,19,15,17,10.40
2008,10,19,15,18,10.40
2008,10,19,15,19,10.40
2008,10,19,15,20,10.40
2008,10,19,15,21,10.50
2008,10,19,15,22,10.60
2008,10,19,15,23,10.60
2008,10,19,15,24,10.60
2008,10,19,15,25,10.60
2008,10,19,15,26,10.60
2008,10,19,15,27,10.60
2008,10,19,15,28,10.60
2008,10,19,15,29,10.60
2008,10,19,15,30,10.60
2008,10,19,15,31,10.60
2008,10,19,15,32,10.60
2008,10,19,15,33,10.60
2008,10,19,15,34,10.60
2008,10,19,15,35,10.70
2008,10,19,15,36,10.70
2008,10,19,15,37,10.80
2008,10,19,15,38,10.80
2008,10,19,15,39,10.80
2008,10,19,15,40,10.80
2008,10,19,15,41,10.70
2008,10,19,15,42,10.70
2008,10,19,15,43,10.60
2008,10,19,15,44,10.60
2008,10,19,15,45,10.60
2008,10,19,15,46,10.60
2008,10,19,15,47,10.60
2008,10,19,15,48,10.60
2008,10,19,15,49,10.70
2008,10,19,15,50,10.70
2008,10,19,15,51,10.60
2008,10,19,15,52,10.70
2008,10,19,15,53,10.70
2008,10,19,15,54,10.70
2008,10,19,15,55,10.70
2008,10,19,15,56,10.70
2008,10,19,15,57,10.70
2008,10,19,15,58,10.70
2008,10,19,15,59,10.70
2008,10,19,16,00,10.70
2008,10,19,16,01,10.70
2008,10,19,16,02,10.70
2008,10,19,16,03,10.70
2008,10,19,16,04,10.70
2008,10,19,16,05,10.70
2008,10,19,16,06,10.70
2008,10,19,16,07,10.80
2008,10,19,16,08,10.80
2008,10,19,16,09,10.80
2008,10,19,16,10,10.80
2008,10,19,16,11,10.80
2008,10,19,16,12,10.80
2008,10,19,16,13,10.80
2008,10,19,16,14,10.80
2008,10,19,16,15,10.80
2008,10,19,16,16,10.80
2008,10,19,16,17,10.80
2008,10,19,16,18,10.80
2008,10,19,16,19,10.90
2008,10,19,16,20,10.90
2008,10,19,16,21,10.90
2008,10,19,16,22,10.90
2008,10,19,16,23,10.90
2008,10,19,16,24,10.90
2008,10,19,16,25,10.80
2008,10,19,16,26,10.70
2008,10,19,16,27,10.70
2008,10,19,16,28,10.60
2008,10,19,16,29,10.60
2008,10,19,16,30,10.60
2008,10,19,16,31,10.60
2008,10,19,16,32,10.60
2008,10,19,16,33,10.50
2008,10,19,16,34,10.40
2008,10,19,16,35,10.40
2008,10,19,16,36,10.40
2008,10,19,16,37,10.30
2008,10,19,16,38,10.30
2008,10,19,16,39,10.30
2008,10,19,16,40,10.20
2008,10,19,16,41,10.20
2008,10,19,16,42,10.20
2008,10,19,16,43,10.10
2008,10,19,16,44,10.10
2008,10,19,16,45,10.10
2008,10,19,16,46,10.10
2008,10,19,16,47,10.10
2008,10,19,16,48,10.10
2008,10,19,16,49,10.10
2008,10,19,16,50,10.00
2008,10,19,16,51,9.90
2008,10,19,16,52,9.90
2008,10,19,16,53,9.90
2008,10,19,16,54,9.90
2008,10,19,16,55,9.90
2008,10,19,16,56,9.90
2008,10,19,16,57,9.90
2008,10,19,16,58,9.90
2008,10,19,16,59,9.80
2008,10,19,17,00,9.80
2008,10,19,17,01,9.80
2008,10,19,17,02,9.80
2008,10,19,17,03,9.80
2008,10,19,17,04,9.80
2008,10,19,17,05,9.80
2008,10,19,17,06,9.80
2008,10,19,17,07,9.80
2008,10,19,17,08,9.80
2008,10,19,17,09,9.80
2008,10,19,17,10,9.80
2008,10,19,17,11,9.80
2008,10,19,17,12,9.80
2008,10,19,17,13,9.80
2008,10,19,17,14,9.80
2008,10,19,17,15,9.70
2008,10,19,17,16,9.70
2008,10,19,17,17,9.70
2008,10,19,17,18,9.70
2008,10,19,17,19,9.70
2008,10,19,17,20,9.60
2008,10,19,17,21,9.60
2008,10,19,17,22,9.60
2008,10,19,17,23,9.50
2008,10,19,17,24,9.50
2008,10,19,17,25,9.50
2008,10,19,17,26,9.50
2008,10,19,17,27,9.50
2008,10,19,17,28,9.50
2008,10,19,17,29,9.50
2008,10,19,17,30,9.50
2008,10,19,17,31,9.40
2008,10,19,17,32,9.40
2008,10,19,17,33,9.40
2008,10,19,17,34,9.40
2008,10,19,17,35,9.40
2008,10,19,17,36,9.40
2008,10,19,17,37,9.40
2008,10,19,17,38,9.40
2008,10,19,17,39,9.30
2008,10,19,17,40,9.30
2008,10,19,17,41,9.30
2008,10,19,17,42,9.30
2008,10,19,17,43,9.30
2008,10,19,17,44,9.30
2008,10,19,17,45,9.40
2008,10,19,17,46,9.40
2008,10,19,17,47,9.40
2008,10,19,17,48,9.40
2008,10,19,17,49,9.40
2008,10,19,17,50,9.40
2008,10,19,17,51,9.40
2008,10,19,17,52,9.40
2008,10,19,17,53,9.40
2008,10,19,17,54,9.30
2008,10,19,17,55,9.30